Location: UBC Liquid-Mirror Observatory
(49.2876°N, 122.5728°W)
Time: 02:09:01
(UTC-08:00)

KITSAT 1 - Visible Passes

Search period start: 22 November 2014 00:00
Search period end: 02 December 2014 00:00
Orbit: 1315 x 1316 km, 66.1° (Epoch: 20 November)

Date Brightness Start Highest point End Pass type
(mag) Time Alt. Az. Time Alt. Az. Time Alt. Az.
22 Nov 12.2 04:53:55 10° SSE 05:00:14 26° ESE 05:06:34 10° NE visible
22 Nov 10.3 06:46:39 10° SW 06:54:45 86° NW 07:02:54 10° NE visible
23 Nov 11.6 05:08:45 10° S 05:15:57 37° ESE 05:23:09 10° NE visible
23 Nov 13.0 16:49:30 10° WNW 16:53:36 15° W 16:57:42 10° SW visible
24 Nov 13.0 03:37:00 10° ESE 03:38:17 10° E 03:39:33 10° E visible
24 Nov 11.0 05:24:03 10° S 05:31:46 52° ESE 05:39:31 10° NE visible
25 Nov 12.6 03:48:58 10° SE 03:53:44 17° E 03:58:29 10° ENE visible
25 Nov 10.5 05:39:43 10° SSW 05:47:43 71° ESE 05:55:46 10° NE visible
26 Nov 12.1 04:03:04 10° SSE 04:09:18 26° ESE 04:15:33 10° NE visible
26 Nov 10.2 05:55:41 10° SW 06:03:47 88° NW 06:11:56 10° NE visible
27 Nov 11.5 04:17:52 10° S 04:25:00 36° ESE 04:32:10 10° NE visible
27 Nov 10.2 06:11:55 10° SW 06:19:58 68° NW 06:28:03 10° NE visible
28 Nov 10.9 04:33:08 10° S 04:40:49 51° ESE 04:48:32 10° NE visible
28 Nov 10.4 06:28:25 10° WSW 06:36:17 53° NW 06:44:11 10° NE visible
29 Nov 12.4 02:58:12 10° SE 03:02:48 17° E 03:07:25 10° ENE visible
29 Nov 10.4 04:48:46 10° SSW 04:56:45 70° ESE 05:04:47 10° NE visible
29 Nov 10.6 06:45:07 10° WSW 06:52:43 42° NW 07:00:20 10° NE visible
30 Nov 11.9 03:13:42 15° SSE 03:18:22 25° ESE 03:24:32 10° NE visible
30 Nov 10.1 05:05:50 15° SW 05:12:49 89° NW 05:20:57 10° NE visible
30 Nov 10.9 07:02:00 10° W 07:09:15 35° NNW 07:16:33 10° NE visible
01 Dec 11.4 03:31:08 28° SSE 03:34:04 35° ESE 03:41:10 10° NE visible
01 Dec 10.1 05:23:13 21° SW 05:28:59 69° NW 05:37:05 10° NE visible
